Lid_Strength_Index
0 -1 -0 1 7 6 8 7 5 6 5 4 3 4 5 4 6 9 1 -0 -0 -0 -1 -1 -1 -1 -1 -1 -1 -1 -1 -1 -1 -1 -1 -1 -1 -1 -1 -1 -1 -2 -2 -1 -2 -2 -1 -1 -1
1 2 1 3 7 9 8 6 6 5 4 4 4 4 4 6 3 3 2 -0 -1 -1 -1 -1 -1 -1 -1 -1 -1 -1 -1 -1 -1 -1 -1 -1 -1 -1 -1 -1 -1 -1 -2 -1 -2 -2 -1 -1 -1
2 2 4 5 7 11 8 7 6 4 4 4 4 3 4 5 3 2 0 -0 -1 -1 -1 -1 -1 -1 -1 -1 -1 -1 -1 -1 -1 -1 -1 -1 -1 -1 -1 -1 -1 -1 -2 -1 -2 -1 -1 -1 -1
4 4 5 7 7 6 7 6 5 5 4 3 3 5 3 2 2 1 -0 -0 -0 -1 -1 -1 -0 -0 -1 -1 -1 -1 -1 -1 -1 -1 -1 -1 -1 -1 -1 -1 -1 -1 -2 -2 -1 -1 -1 -1 -1
3 5 8 7 7 6 6 5 5 5 5 4 4 5 5 2 1 0 -0 -0 -0 -1 -1 -1 -0 -0 -1 -1 -1 -1 -1 -1 -1 -1 -1 -1 -1 -1 -1 -1 -1 -1 -2 -2 -2 -2 -2 -2 -2
5 4 8 8 7 6 6 5 5 5 5 4 4 5 5 1 1 0 -0 -0 -1 -0 -1 -1 -1 -1 -0 -0 -0 -0 -0 -1 -1 -1 -1 -1 -1 -1 -1 -1 -1 -1 -1 -1 -1 -2 -2 -2 -2
6 6 7 7 7 6 7 5 6 6 6 5 3 6 4 2 1 0 -0 -1 -1 -1 -1 -1 -2 -1 -0 -0 0 -0 -0 -0 -1 -1 -1 -1 -1 -1 -1 -1 -1 -1 -1 -1 -2 -2 -2 -2 -2
5 6 7 7 7 7 6 6 5 6 5 3 3 5 5 3 1 0 0 -0 -0 -1 -1 -1 -2 -2 -2 -2 -0 -0 -0 -0 -1 -1 -1 -1 -1 -1 -1 -1 -1 -1 -1 -1 -2 -2 -1 -1 -2
4 8 8 7 8 7 6 6 5 5 4 5 4 3 2 1 1 1 1 1 0 0 -0 -1 -1 -1 -2 -2 -1 -1 -1 -1 -1 -1 -1 -0 -2 -2 -2 -1 -1 -1 -1 -1 -1 -1 -1 -1 -1
6 7 7 6 6 6 6 6 6 6 6 6 6 4 1 1 2 2 2 2 1 1 0 -0 -1 -1 -1 -1 -2 -2 -1 -2 -2 -2 -2 -2 -2 -2 -1 -1 -1 -1 -1 -1 -1 -1 -1 -1 -1
6 7 6 6 6 6 6 6 5 6 7 6 6 5 5 2 2 2 2 1 1 1 0 -0 -1 -1 -1 -1 -1 -1 -1 -1 -2 -2 -2 -2 -2 -2 -1 -1 -1 -2 -1 -1 -1 -1 -1 -2 -1
7 6 5 7 7 7 7 5 7 7 7 5 5 4 4 5 3 2 2 2 1 1 0 -0 -1 -1 -1 -1 -1 -1 -1 -1 -1 -1 -2 -2 -1 -1 -1 -1 -1 -2 -2 -2 -2 -1 -2 -2 -2
8 7 7 7 7 8 7 7 6 7 6 5 5 5 4 5 5 3 1 1 1 1 0 -0 -1 -1 -1 -1 -1 -1 -1 -1 -1 -2 -2 -1 -1 -1 -1 -1 -1 -1 -2 -1 -1 -1 -1 -1 -1
7 8 9 9 8 8 8 7 7 6 5 5 5 5 4 4 4 4 4 1 1 1 0 -0 -0 -1 -1 -1 -1 -1 -1 -1 -1 -1 -1 -2 -1 -1 -1 -1 -1 -1 -1 -1 -1 -1 -1 -1 -1
9 10 9 10 9 10 8 9 9 7 6 6 6 5 4 3 3 3 3 3 1 1 0 -0 -0 -1 -1 -1 -1 -1 -1 -1 -1 -1 -2 -2 -2 -2 -1 -1 -1 -1 -2 -2 -2 -2 -1 -1 -1
10 9 11 10 10 10 9 12 9 7 6 6 6 5 5 4 2 1 1 2 3 1 0 -0 -0 -1 -1 -1 -1 -1 -1 -1 -1 -1 -1 -2 -1 -2 -1 -1 -1 -1 -2 -1 -1 -1 -0 -0 -0
10 11 10 11 9 9 8 11 8 6 6 6 6 5 5 5 4 3 2 1 2 2 1 0 -0 -0 -0 -1 -1 -1 -1 -1 -1 -1 -1 -2 -2 -1 -1 -1 -1 -2 -1 -1 -1 -0 -0 0 0
10 10 10 10 9 7 8 8 7 6 5 6 5 5 5 5 4 3 3 3 1 0 2 2 1 -0 -1 -1 -0 -0 -0 -1 -1 -1 -1 -2 -1 -2 -1 -1 -1 -1 -0 -0 -0 -0 -0 0 0
8 9 10 10 7 7 8 8 7 6 5 5 5 5 4 4 3 2 2 2 3 2 1 3 3 2 2 0 1 1 1 0 -0 -1 -1 -1 -1 -1 -1 -0 -0 -1 -0 -0 -0 -0 0 1 -0
8 9 10 9 8 6 7 8 6 6 5 5 5 5 4 4 4 3 2 2 2 3 3 2 1 2 3 2 1 1 1 0 -0 -0 -1 -1 -1 -1 -1 -0 -0 -0 -0 -0 -0 0 1 1 0
8 9 9 10 8 6 7 8 7 6 5 5 4 4 4 4 4 4 3 3 3 3 2 3 3 2 2 3 2 1 0 0 1 0 0 -0 -1 -1 -1 -1 -0 -0 -0 0 0 0 1 2 1
11 9 9 9 9 11 8 12 9 7 6 6 5 4 4 4 3 3 4 4 3 3 2 2 3 5 3 3 5 5 6 2 1 1 -0 -0 -1 -1 -1 -1 -0 -0 -0 0 0 0 0 1 2
10 8 9 8 9 9 10 10 9 7 8 7 5 4 4 3 3 4 4 4 4 4 3 3 2 3 5 5 5 6 8 7 3 1 0 0 -0 -1 -0 -0 -0 -0 -0 -0 0 0 0 1 1
8 8 9 8 8 12 10 10 10 9 8 7 6 5 5 5 4 4 4 4 4 3 4 4 4 3 3 4 6 6 7 8 9 8 4 1 1 0 -0 -0 -0 -0 -0 0 0 0 0 1 1
8 9 12 13 13 13 9 10 10 7 7 6 6 5 5 5 5 5 5 5 4 4 4 4 4 5 4 4 5 7 7 7 8 9 8 7 5 1 0 -0 0 0 -0 -0 -0 0 0 0 1
8 8 11 15 14 13 10 12 10 6 6 6 6 5 5 5 5 5 4 4 4 4 4 3 4 4 5 5 5 6 7 7 8 9 10 9 8 8 7 5 0 -0 -0 -0 -0 0 0 0 1
9 10 8 12 10 12 11 10 8 7 7 6 6 6 6 5 5 5 4 4 4 4 4 3 4 4 4 4 5 7 6 8 9 8 9 10 9 9 8 8 7 2 0 0 0 1 1 1 1
7 6 11 10 15 15 12 11 11 9 8 7 7 6 6 5 4 4 4 4 4 3 3 3 3 4 4 4 4 6 7 8 8 8 9 9 9 10 9 8 8 7 3 1 1 1 1 1 1
9 10 9 9 11 13 14 12 7 7 7 7 6 6 5 5 4 4 4 4 3 3 3 3 3 4 3 4 4 6 7 8 8 9 9 9 9 9 8 9 9 8 7 7 2 1 1 1 1
8 9 8 11 13 11 11 12 6 6 6 6 6 5 5 5 4 4 4 4 4 4 4 4 4 4 3 4 4 4 5 6 8 9 9 9 9 9 9 8 8 8 7 6 9 4 1 2 2